When you browse on this site, cookies collect data to enhance your experience and personalize the content and advertising you see.
Visit our Privacy Policy to learn more. By continuing to use the site, you agree to this use of cookies and data.
  • In Romania
  • List of Countries
  • For 7 days
  • Water Temperature
  • Satellite Maps
  • Weather Map
  • Weather Widgets
  • user-avatar
    Login

    Hourly Weather Wlora

    Today, 16 December, Sunday

    Time Temperature Precipitation Wind Pressure Humidity
    00:00 +9°C° 0.9 mm 8 mps 759 mmHg 93%
    01:00 +9°C° 0.9 mm 8 mps 759 mmHg 94%
    02:00 +9°C° 0.1 mm 8 mps 760 mmHg 93%
    03:00 +9°C° 0.1 mm 8 mps 760 mmHg 92%
    04:00 +9°C° 0.1 mm 8 mps 760 mmHg 92%
    05:00 +9°C° 0 mm 8 mps 760 mmHg 89%
    06:00 +7°C° 0 mm 8 mps 760 mmHg 87%
    07:00 +7°C° 0 mm 8 mps 761 mmHg 85%
    08:00 +7°C° 0 mm 8 mps 761 mmHg 81%
    09:00 +9°C° 0 mm 8 mps 762 mmHg 77%
    10:00 +9°C° 0 mm 8 mps 762 mmHg 73%
    11:00 +9°C° 0 mm 8 mps 762 mmHg 70%
    12:00 +9°C° 0 mm 8 mps 762 mmHg 68%
    13:00 +10°C° 0 mm 8 mps 762 mmHg 65%
    14:00 +9°C° 0 mm 8 mps 762 mmHg 68%
    15:00 +7°C° 0 mm 8 mps 763 mmHg 70%
    16:00 +7°C° 0 mm 8 mps 763 mmHg 73%
    17:00 +6°C° 0 mm 7 mps 763 mmHg 75%
    18:00 +5°C° 0 mm 7 mps 763 mmHg 78%
    19:00 +4°C° 0 mm 6 mps 764 mmHg 80%
    20:00 +4°C° 0 mm 6 mps 764 mmHg 79%
    21:00 +5°C° 0 mm 5 mps 764 mmHg 78%
    22:00 +5°C° 0 mm 5 mps 764 mmHg 78%
    23:00 +5°C° 0 mm 4 mps 764 mmHg 75%

    Tomorrow, 17 December, Monday

    Time Temperature Precipitation Wind Pressure Humidity
    00:00 +5°C° 0 mm 4 mps 764 mmHg 72%
    01:00 +5°C° 0 mm 3 mps 764 mmHg 70%
    02:00 +5°C° 0 mm 3 mps 764 mmHg 68%
    03:00 +6°C° 0 mm 2 mps 763 mmHg 65%
    04:00 +6°C° 0 mm 2 mps 763 mmHg 63%
    05:00 +7°C° 0.2 mm 2 mps 763 mmHg 62%
    06:00 +7°C° 0.2 mm 2 mps 763 mmHg 60%
    07:00 +8°C° 0.2 mm 2 mps 762 mmHg 59%
    08:00 +8°C° 0.6 mm 3 mps 762 mmHg 63%
    09:00 +7°C° 0.6 mm 5 mps 762 mmHg 67%
    10:00 +7°C° 0.6 mm 6 mps 762 mmHg 71%
    11:00 +6°C° 0.2 mm 7 mps 761 mmHg 73%
    12:00 +6°C° 0.2 mm 8 mps 760 mmHg 74%
    13:00 +6°C° 0.2 mm 9 mps 760 mmHg 76%
    14:00 +6°C° 2 mm 9 mps 759 mmHg 78%
    15:00 +6°C° 2 mm 8 mps 758 mmHg 79%
    16:00 +6°C° 2 mm 8 mps 758 mmHg 81%
    17:00 +6°C° 4.7 mm 8 mps 758 mmHg 84%
    18:00 +6°C° 4.7 mm 7 mps 758 mmHg 87%
    19:00 +7°C° 4.7 mm 6 mps 758 mmHg 91%
    20:00 +7°C° 1.3 mm 6 mps 758 mmHg 91%
    21:00 +7°C° 1.3 mm 6 mps 758 mmHg 91%
    22:00 +8°C° 1.3 mm 5 mps 758 mmHg 91%
    23:00 +8°C° 0.5 mm 5 mps 758 mmHg 90%

    Day after tomorrow, 18 December, Tuesday

    Time Temperature Precipitation Wind Pressure Humidity
    00:00 +7°C° 0.5 mm 5 mps 759 mmHg 89%
    01:00 +7°C° 0.5 mm 5 mps 759 mmHg 88%
    02:00 +7°C° 0.9 mm 6 mps 759 mmHg 88%
    03:00 +7°C° 0.9 mm 6 mps 759 mmHg 88%
    04:00 +6°C° 0.9 mm 7 mps 759 mmHg 87%
    05:00 +6°C° 0.6 mm 7 mps 760 mmHg 87%
    06:00 +6°C° 0.6 mm 7 mps 760 mmHg 86%
    07:00 +6°C° 0.6 mm 8 mps 761 mmHg 85%
    08:00 +6°C° 0 mm 7 mps 761 mmHg 82%
    09:00 +6°C° 0 mm 7 mps 762 mmHg 80%
    10:00 +8°C° 0 mm 7 mps 762 mmHg 78%
    11:00 +8°C° 0 mm 7 mps 762 mmHg 76%
    12:00 +9°C° 0 mm 7 mps 762 mmHg 74%
    13:00 +10°C° 0 mm 8 mps 762 mmHg 72%
    14:00 +9°C° 0 mm 8 mps 763 mmHg 75%
    15:00 +9°C° 0 mm 8 mps 763 mmHg 77%
    16:00 +7°C° 0 mm 8 mps 763 mmHg 79%
    17:00 +7°C° 0 mm 8 mps 764 mmHg 79%
    18:00 +6°C° 0 mm 8 mps 765 mmHg 79%
    19:00 +5°C° 0 mm 8 mps 765 mmHg 79%
    20:00 +5°C° 0 mm 7 mps 766 mmHg 78%
    21:00 +5°C° 0 mm 7 mps 766 mmHg 77%
    22:00 +5°C° 0 mm 6 mps 766 mmHg 76%
    23:00 +5°C° 0 mm 6 mps 766 mmHg 75%

    19 December, Wednesday

    Time Temperature Precipitation Wind Pressure Humidity
    00:00 +5°C° 0 mm 6 mps 766 mmHg 75%
    01:00 +5°C° 0 mm 6 mps 766 mmHg 74%
    02:00 +5°C° 0 mm 6 mps 767 mmHg 73%
    03:00 +5°C° 0 mm 6 mps 767 mmHg 72%
    04:00 +6°C° 0 mm 5 mps 767 mmHg 72%
    05:00 +6°C° 0 mm 5 mps 767 mmHg 71%
    06:00 +6°C° 0 mm 5 mps 767 mmHg 71%
    07:00 +6°C° 0 mm 5 mps 768 mmHg 70%
    08:00 +7°C° 0 mm 4 mps 768 mmHg 67%
    09:00 +10°C° 0 mm 4 mps 768 mmHg 63%
    10:00 +11°C° 0 mm 3 mps 768 mmHg 59%
    11:00 +12°C° 0 mm 3 mps 768 mmHg 57%
    12:00 +12°C° 0 mm 3 mps 768 mmHg 55%
    13:00 +13°C° 0 mm 3 mps 767 mmHg 53%
    14:00 +12°C° 0 mm 3 mps 767 mmHg 57%
    15:00 +11°C° 0 mm 3 mps 767 mmHg 61%
    16:00 +10°C° 0 mm 3 mps 767 mmHg 65%
    17:00 +9°C° 0 mm 2 mps 768 mmHg 64%
    18:00 +9°C° 0 mm 2 mps 768 mmHg 64%
    19:00 +8°C° 0 mm 2 mps 768 mmHg 64%
    20:00 +8°C° 0 mm 2 mps 768 mmHg 62%
    21:00 +8°C° 0 mm 2 mps 768 mmHg 61%
    22:00 +8°C° 0 mm 1 mps 768 mmHg 60%
    23:00 +8°C° 0 mm 1 mps 768 mmHg 60%

    20 December, Thursday

    Time Temperature Precipitation Wind Pressure Humidity
    00:00 +7°C° 0 mm 2 mps 768 mmHg 61%
    01:00 +7°C° 0 mm 2 mps 768 mmHg 61%
    02:00 +7°C° 0 mm 2 mps 768 mmHg 62%
    03:00 +7°C° 0 mm 3 mps 768 mmHg 64%
    04:00 +7°C° 0 mm 3 mps 767 mmHg 65%
    05:00 +6°C° 0 mm 4 mps 767 mmHg 66%
    06:00 +6°C° 0 mm 5 mps 767 mmHg 67%
    07:00 +5°C° 0 mm 6 mps 767 mmHg 69%
    08:00 +7°C° 0 mm 6 mps 768 mmHg 68%
    09:00 +9°C° 0 mm 7 mps 768 mmHg 68%
    10:00 +10°C° 0 mm 8 mps 768 mmHg 68%
    11:00 +11°C° 0.1 mm 8 mps 767 mmHg 69%
    12:00 +12°C° 0.1 mm 9 mps 767 mmHg 69%
    13:00 +13°C° 0.1 mm 9 mps 766 mmHg 70%
    14:00 +12°C° 0.1 mm 9 mps 766 mmHg 74%
    15:00 +11°C° 0.1 mm 9 mps 766 mmHg 79%
    16:00 +11°C° 0.1 mm 9 mps 766 mmHg 84%
    17:00 +11°C° 0.3 mm 9 mps 766 mmHg 85%
    18:00 +10°C° 0.3 mm 9 mps 766 mmHg 87%
    19:00 +10°C° 0.3 mm 9 mps 766 mmHg 88%
    20:00 +10°C° 0.6 mm 9 mps 766 mmHg 88%
    21:00 +10°C° 0.6 mm 8 mps 766 mmHg 87%
    22:00 +10°C° 0.6 mm 8 mps 766 mmHg 86%
    23:00 +10°C° 0.7 mm 7 mps 766 mmHg 88%

    21 December, Friday

    Time Temperature Precipitation Wind Pressure Humidity
    00:00 +10°C° 0.7 mm 6 mps 766 mmHg 89%
    01:00 +10°C° 0.7 mm 6 mps 766 mmHg 91%
    02:00 +10°C° 0.2 mm 5 mps 766 mmHg 92%
    03:00 +11°C° 0.2 mm 4 mps 766 mmHg 93%
    04:00 +11°C° 0.2 mm 4 mps 766 mmHg 94%
    05:00 +11°C° 0.1 mm 4 mps 766 mmHg 94%
    06:00 +11°C° 0.1 mm 4 mps 766 mmHg 94%
    07:00 +11°C° 0.1 mm 3 mps 766 mmHg 94%
    08:00 +12°C° 0.3 mm 4 mps 766 mmHg 89%
    09:00 +12°C° 0.3 mm 4 mps 766 mmHg 84%
    10:00 +13°C° 0.3 mm 4 mps 766 mmHg 78%
    11:00 +13°C° 0.2 mm 5 mps 766 mmHg 75%
    12:00 +14°C° 0.2 mm 5 mps 766 mmHg 72%
    13:00 +14°C° 0.2 mm 5 mps 765 mmHg 68%
    14:00 +13°C° 0.1 mm 5 mps 765 mmHg 71%
    15:00 +12°C° 0.1 mm 5 mps 765 mmHg 74%
    16:00 +12°C° 0.1 mm 5 mps 766 mmHg 77%
    17:00 +10°C° 0.3 mm 5 mps 766 mmHg 79%
    18:00 +9°C° 0.3 mm 5 mps 766 mmHg 82%
    19:00 +9°C° 0.3 mm 5 mps 766 mmHg 84%
    20:00 +9°C° 0.4 mm 5 mps 766 mmHg 85%
    21:00 +8°C° 0.4 mm 6 mps 767 mmHg 85%
    22:00 +8°C° 0.4 mm 6 mps 767 mmHg 86%
    23:00 +8°C° 0.4 mm 7 mps 767 mmHg 86%
    Show more